Talkeetna, AK

6:15 PM AKST on January 17, 2018 (GMT -0900)
Talkeetna

Weather History for PATK - March, 2014

Change the Weather History Date:

Wednesday, March 5, 2014

  Actual Average Record
Temperature  
Mean Temperature 21 °F -  
Max Temperature 27 °F 29 °F 48 °F (1984)
Min Temperature 15 °F 7 °F -31 °F (1974)
Degree Days  
Heating Degree Days 44    
Moisture  
Dew Point 22 °F    
Average Humidity 88    
Maximum Humidity 93    
Minimum Humidity 79    
Precipitation  
Precipitation 0.08 in - - ()
Snow  
Snow 0.00 in - - ()
Snow Depth 27.00 in    
Sea Level Pressure  
Sea Level Pressure 29.69 in    
Wind  
Wind Speed 0 mph (SSW)    
Max Wind Speed 6 mph    
Max Gust Speed -    
Visibility 3 miles    
Events Snow    
Averages and records for this station are not official NWS values.
T = Trace of Precipitation, MM = Missing Value Source: NWS Daily Summary

Daily Weather History Graph

Daily Weather History Graph

Search for Another Location

Airport or City:

Trip Planner

Search our weather history database for the weather conditions in past years. The results will help you decide how hot, cold, wet, or windy it might be!

Date:

Astronomy

Mar. 05, 2014 Rise Set
Actual Time 7:49 AM AKST 6:34 PM AKST
Civil Twilight 7:05 AM AKST 7:19 PM AKST
Nautical Twilight 6:13 AM AKST 8:11 PM AKST
Astronomical Twilight 5:19 AM AKST 9:06 PM AKST
Moon 8:50 AM AKST (3/5) 12:18 AM AKST (3/5)
Length of Visible Light 12h 14m
Length of Day
10h 45m
Waxing Crescent, 24% of the Moon is Illuminated
Mar 5
Waxing Crescent
Mar 8
First Quarter
Mar 16
Full
Mar 23
Last Quarter
Mar 30
New

Hourly Weather History & Observations

Time (AKST) Temp. Windchill Dew Point Humidity Pressure Visibility Wind Dir Wind Speed Gust Speed Precip Events Conditions
12:04 AM 24.8 °F - 21.2 °F 86% 29.72 in 1.0 mi Calm Calm - 0.00 in Snow Light Snow
12:18 AM 24.8 °F - 23.0 °F 93% 29.72 in 1.5 mi Calm Calm - 0.00 in Snow Light Snow
12:53 AM 25.0 °F - 21.9 °F 88% 29.74 in 2.0 mi Calm Calm - 0.01 in Snow Light Snow
1:00 AM 24.8 °F 17.9 °F 21.2 °F 86% 29.72 in 1.8 mi SSW 5.8 mph - 0.00 in Snow Light Snow
1:11 AM 24.8 °F - 23.0 °F 93% 29.72 in 2.0 mi Calm Calm - 0.01 in Snow Light Snow
1:21 AM 24.8 °F - 21.2 °F 86% 29.72 in 1.8 mi Calm Calm - 0.01 in Snow Light Snow
1:39 AM 24.8 °F - 21.2 °F 86% 29.71 in 2.0 mi Calm Calm - 0.01 in Snow Light Snow
1:53 AM 25.0 °F - 21.9 °F 88% 29.73 in 1.5 mi Calm Calm - 0.01 in Snow Light Snow
2:39 AM 24.8 °F - 21.2 °F 86% 29.71 in 2.0 mi Calm Calm - 0.02 in Snow Light Snow
2:49 AM 24.8 °F - 21.2 °F 86% 29.71 in 4.0 mi Calm Calm - 0.02 in Snow Light Snow
2:53 AM 25.0 °F - 21.9 °F 88% 29.73 in 4.0 mi Calm Calm - 0.02 in Snow Light Snow
3:53 AM 24.1 °F - 21.9 °F 91% 29.73 in 1.8 mi Calm Calm - 0.00 in Snow Light Snow
4:02 AM 24.8 °F - 21.2 °F 86% 29.70 in 1.2 mi Calm Calm - 0.01 in Snow Light Snow
4:38 AM 24.8 °F - 21.2 °F 86% 29.69 in 2.0 mi Calm Calm - 0.02 in Snow Light Snow
4:53 AM 24.1 °F - 21.9 °F 91% 29.71 in 1.5 mi Calm Calm - 0.02 in Snow Light Snow
5:19 AM 24.8 °F - 21.2 °F 86% 29.69 in 1.0 mi Calm Calm - 0.01 in Snow Light Snow
5:27 AM 24.8 °F - 21.2 °F 86% 29.69 in 1.2 mi Calm Calm - 0.02 in Snow Light Snow
5:53 AM 24.1 °F - 21.9 °F 91% 29.71 in 1.0 mi Calm Calm - 0.02 in Snow Light Snow
6:07 AM 24.8 °F - 21.2 °F 86% 29.69 in 2.0 mi Calm Calm - 0.01 in Snow Light Snow
6:14 AM 24.8 °F - 21.2 °F 86% 29.69 in 1.8 mi Calm Calm - 0.01 in Snow Light Snow
6:24 AM 24.8 °F - 21.2 °F 86% 29.69 in 2.5 mi Calm Calm - 0.01 in Snow Light Snow
6:39 AM 23.0 °F - 21.2 °F 93% 29.69 in 1.8 mi Calm Calm - 0.01 in Snow Light Snow
6:48 AM 24.8 °F - 21.2 °F 86% 29.69 in 2.0 mi Calm Calm - 0.01 in Snow Light Snow
6:53 AM 24.1 °F - 21.0 °F 88% 29.71 in 2.0 mi Calm Calm - 0.01 in Snow Light Snow
7:35 AM 24.8 °F - 21.2 °F 86% 29.68 in 2.5 mi Calm Calm - 0.01 in Snow Light Snow
7:48 AM 24.8 °F - 21.2 °F 86% 29.68 in 3.0 mi Calm Calm - 0.01 in Snow Light Snow
7:53 AM 23.0 °F - 21.0 °F 92% 29.70 in 3.0 mi Calm Calm - 0.01 in Snow Light Snow
8:08 AM 23.0 °F - 21.2 °F 93% 29.68 in 1.8 mi Calm Calm - 0.00 in Snow Light Snow
8:19 AM 23.0 °F - 21.2 °F 93% 29.68 in 1.2 mi Calm Calm - 0.00 in Snow Light Snow
8:37 AM 23.0 °F - 21.2 °F 93% 29.68 in - North - - 0.00 in   Unknown
8:53 AM 23.0 °F - 21.0 °F 92% 29.71 in 1.2 mi Calm Calm - 0.00 in Snow Light Snow
8:56 AM 23.0 °F - 21.2 °F 93% 29.69 in 1.0 mi Calm Calm - 0.00 in Snow Light Snow
9:38 AM 23.0 °F - 21.2 °F 93% 29.69 in - Calm Calm - 0.01 in   Overcast
9:49 AM 24.8 °F - 21.2 °F 86% 29.68 in 0.8 mi Calm Calm - 0.01 in Snow Light Snow
9:53 AM 24.1 °F - 21.0 °F 88% 29.71 in 0.8 mi Calm Calm - 0.01 in Snow Light Snow
10:03 AM 23.0 °F - 21.2 °F 93% 29.68 in 1.0 mi Calm Calm - 0.00 in Snow Light Snow
10:14 AM 24.8 °F - 21.2 °F 86% 29.68 in 1.2 mi Calm Calm - 0.01 in Snow Light Snow
10:53 AM 25.0 °F - 21.9 °F 88% 29.71 in 0.8 mi Calm Calm - 0.01 in Snow Light Snow
11:14 AM 24.8 °F - 21.2 °F 86% 29.68 in 1.0 mi Calm Calm - 0.00 in Snow Light Snow
11:29 AM 24.8 °F - 21.2 °F 86% 29.68 in 2.0 mi Calm Calm - 0.01 in   Overcast
11:41 AM 24.8 °F - 21.2 °F 86% 29.68 in 6.0 mi Calm Calm - 0.01 in   Overcast
11:53 AM 25.0 °F - 21.9 °F 88% 29.70 in 4.0 mi Calm Calm - 0.01 in Snow Light Snow
12:16 PM 26.6 °F - 21.2 °F 80% 29.68 in 1.2 mi Calm Calm - 0.00 in Snow Light Snow
12:53 PM 26.1 °F - 21.9 °F 84% 29.70 in 1.5 mi Calm Calm - 0.00 in Snow Light Snow
1:02 PM 26.6 °F - 21.2 °F 80% 29.68 in 1.5 mi Calm Calm - 0.00 in Snow Light Snow
1:21 PM 26.6 °F - 23.0 °F 86% 29.68 in 1.0 mi Calm Calm - 0.00 in Snow Light Snow
1:49 PM 26.6 °F - 23.0 °F 86% 29.68 in 0.8 mi Calm Calm - 0.01 in Snow Light Snow
1:53 PM 26.1 °F - 24.1 °F 92% 29.70 in 1.0 mi Calm Calm - 0.01 in Snow Light Snow
2:11 PM 26.6 °F - 23.0 °F 86% 29.67 in 2.0 mi Calm Calm - 0.00 in Snow Light Snow
2:34 PM 26.6 °F - 24.8 °F 93% 29.67 in 1.8 mi Calm Calm - 0.00 in Snow Light Snow
2:46 PM 26.6 °F - 23.0 °F 86% 29.67 in 1.0 mi Calm Calm - 0.00 in Snow Light Snow
2:53 PM 27.0 °F - 23.0 °F 85% 29.69 in 0.8 mi Calm Calm - 0.00 in Snow Light Snow
3:37 PM 26.6 °F - 24.8 °F 93% 29.67 in 1.0 mi Calm Calm - 0.01 in Snow Light Snow
3:53 PM 27.0 °F - 24.1 °F 89% 29.69 in 0.8 mi Calm Calm - 0.02 in Snow Light Snow
4:05 PM 26.6 °F - 24.8 °F 93% 29.67 in 1.0 mi Calm Calm - 0.00 in Snow Light Snow
4:22 PM 26.6 °F - 23.0 °F 86% 29.66 in 2.0 mi Calm Calm - 0.00 in Snow Light Snow
4:39 PM 26.6 °F - 23.0 °F 86% 29.66 in 3.0 mi Calm Calm - 0.00 in Snow Light Snow
4:53 PM 27.0 °F - 24.1 °F 89% 29.68 in 3.0 mi Calm Calm - 0.00 in Snow Light Snow
5:23 PM 26.6 °F - 23.0 °F 86% 29.66 in 7.0 mi Calm Calm - 0.01 in Snow Light Snow
5:31 PM 26.6 °F - 24.8 °F 93% 29.66 in 4.0 mi Calm Calm - 0.01 in   Overcast
5:50 PM 26.6 °F - 23.0 °F 86% 29.65 in 3.0 mi Calm Calm - 0.01 in Snow Light Snow
5:53 PM 27.0 °F - 23.0 °F 85% 29.68 in 3.0 mi Calm Calm - 0.01 in Snow Light Snow
6:06 PM 26.6 °F - 23.0 °F 86% 29.66 in 4.0 mi Calm Calm - 0.00 in Snow Light Snow
6:53 PM 26.1 °F - 23.0 °F 88% 29.68 in 10.0 mi Calm Calm - 0.00 in   Overcast
7:14 PM 26.6 °F - 23.0 °F 86% 29.66 in 2.5 mi Calm Calm - 0.00 in Snow Light Snow
7:18 PM 26.6 °F - 23.0 °F 86% 29.66 in 5.0 mi Calm Calm - 0.00 in   Overcast
7:22 PM 26.6 °F - 21.2 °F 80% 29.66 in 9.0 mi Calm Calm - 0.00 in   Overcast
7:29 PM 26.6 °F - 21.2 °F 80% 29.66 in 10.0 mi Calm Calm - 0.00 in   Overcast
7:53 PM 25.0 °F - 21.0 °F 85% 29.69 in 10.0 mi Calm Calm - 0.00 in   Overcast
8:14 PM 24.8 °F - 21.2 °F 86% 29.67 in 10.0 mi Calm Calm - N/A   Overcast
8:53 PM 23.0 °F - 19.9 °F 88% 29.69 in 10.0 mi Calm Calm - N/A   Overcast
9:53 PM 19.9 °F - 17.1 °F 89% 29.70 in 10.0 mi Calm Calm - N/A   Overcast
10:53 PM 19.9 °F - 16.0 °F 85% 29.70 in 10.0 mi Calm Calm - N/A   Overcast
11:17 PM 15.8 °F - 14.0 °F 93% 29.68 in 10.0 mi Calm Calm - N/A   Overcast
11:27 PM 15.8 °F - 14.0 °F 93% 29.68 in 10.0 mi Calm Calm - N/A   Overcast
11:53 PM 16.0 °F - 12.9 °F 88% 29.71 in 10.0 mi Calm Calm - N/A   Overcast